sat.trackr.live / text

‹ back to catalog

GPS BIIF-12 (PRN 32)

NORAD 41328 · 2016-007A

PAYLOAD ACTIVE UNKNOWN

§ Identity

Operator
Country
US
Launch date
2016-02-05
Launch site
AFETR
Launch vehicle
Mass (kg)
RCS (m²)
26.12

Purposes: earth_obs, nav

External: N2YO · Heavens-Above · Gunter

§ Orbital elements

Epoch: 2026-09-18T14:23:00.114432Z

Period
717.94 min
Inclination
55.5881°
Eccentricity
0.0097723
Mean motion
2.00572654 rev/d
Perigee alt
19,921.9 km
Apogee alt
20,441.0 km
Semi-major
26,559.5 km
B*
0.0000e+0
RAAN
85.7564°
Arg perigee
247.2828°
Mean anomaly
111.7321°
Rev number
7,771

§ Raw data

GPS BIIF-12 (PRN 32)1 41328U 16007A   26261.59930688  .00000005  00000+0  00000+0 0  99902 41328  55.5881  85.7564 0097723 247.2828 111.7321  2.00572654 77717

JSON: /api/v1/satellites/41328 · /tle

For live sub-satellite position, see the globe view (requires WebGL).

§ Visibility from observer

Set your observer location to see the next 7 days of passes ≥ 10°. The values pass through the URL so the page stays shareable.

No JS? Fill the form by hand. The geolocation button needs JavaScript.